Connaught Arpt, Ireland

11:40 AM GMT on February 28, 2017 (GMT +0000)
Connaught

Weather History for EIKN - June, 2013

Change the Weather History Date:

Saturday, June 29, 2013

  Actual Average Record
Temperature  
Mean Temperature 56 °F -  
Max Temperature 64 °F - - ()
Min Temperature 47 °F - - ()
Degree Days  
Heating Degree Days 10    
Growing Degree Days 6 (Base 50)    
Moisture  
Dew Point 55 °F    
Average Humidity 90    
Maximum Humidity 100    
Minimum Humidity 73    
Precipitation  
Precipitation 0.01 in - - ()
Sea Level Pressure  
Sea Level Pressure 30.22 in    
Wind  
Wind Speed 10 mph ()    
Max Wind Speed 21 mph    
Max Gust Speed -    
Visibility 3.7 miles    
Events Fog , Rain    
T = Trace of Precipitation, MM = Missing Value Source: Averaged Metar Reports

Daily Weather History Graph

Daily Weather History Graph

Search for Another Location

Airport or City:

Trip Planner

Search our weather history database for the weather conditions in past years. The results will help you decide how hot, cold, wet, or windy it might be!

Date:

Astronomy

Jun. 29, 2013 Rise Set
Actual Time 5:06 AM IST 10:10 PM IST
Civil Twilight 4:13 AM IST 11:03 PM IST
Nautical Twilight 2:32 AM IST 12:43 AM IST
Astronomical Twilight Sun does not rise Sun does not rise
Moon 12:28 AM IST (6/29) 1:13 PM IST (6/29)
Length of Visible Light 18h 50m
Length of Day
17h 03m
Waning Gibbous, 58% of the Moon is Illuminated
Jun 29
Waning Gibbous
Jun 30
Last Quarter
Jul 8
New
Jul 16
First Quarter
Jul 22
Full

Hourly Weather History & Observations

Time (IST) Temp. Dew Point Humidity Pressure Visibility Wind Dir Wind Speed Gust Speed Precip Events Conditions
1:00 AM 48 °F 47 °F 93% 30.25 in - West 4.5 mph - -  
7:00 AM 50 °F 49 °F 97% 30.22 in 3 mi SSW 4.5 mph - - Rain Light Drizzle
7:00 AM 50.0 °F 50.0 °F 100% 30.18 in 2.8 mi SSW 4.6 mph - N/A   Light Drizzle
7:30 AM 50.0 °F 50.0 °F 100% 30.18 in 3.1 mi South 6.9 mph - N/A   Light Drizzle
8:00 AM 50.0 °F 50.0 °F 100% 30.18 in 3.1 mi South 6.9 mph - N/A   Light Drizzle
8:30 AM 51.8 °F 51.8 °F 100% 30.18 in 0.9 mi SSW 8.1 mph - N/A   Light Drizzle
9:00 AM 53.6 °F 53.6 °F 100% 30.18 in 1.7 mi SW 6.9 mph - N/A   Light Drizzle
9:30 AM 55.4 °F 55.4 °F 100% 30.18 in 2.8 mi WSW 13.8 mph - N/A   Light Drizzle
10:00 AM 55.4 °F 55.4 °F 100% 30.18 in 1.5 mi WSW 13.8 mph - N/A   Light Drizzle
10:30 AM 55.4 °F 55.4 °F 100% 30.21 in 0.2 mi WSW 13.8 mph - N/A Fog Fog
11:00 AM 55.4 °F 55.4 °F 100% 30.21 in 0.2 mi WSW 15.0 mph - N/A Fog Fog
11:30 AM 55.4 °F 55.4 °F 100% 30.21 in 0.2 mi WSW 17.3 mph - N/A Fog Light Drizzle
12:00 PM 55.4 °F 55.4 °F 100% 30.21 in 0.2 mi West 18.4 mph - N/A Fog Fog
12:30 PM 57.2 °F 57.2 °F 100% 30.21 in 0.4 mi West 18.4 mph - N/A Fog Fog
1:00 PM 58 °F 57 °F 97% 30.23 in 3 mi West 13.4 mph - - Fog Light Fog
1:00 PM 59.0 °F 57.2 °F 94% 30.21 in 3.1 mi West 13.8 mph - N/A   Mostly Cloudy
1:30 PM 60.8 °F 59.0 °F 94% 30.21 in 6.2 mi WSW 16.1 mph - N/A   Mostly Cloudy
2:00 PM 62.6 °F 57.2 °F 82% 30.21 in 6.2 mi WSW 20.7 mph - N/A   Mostly Cloudy
2:30 PM 62.6 °F 57.2 °F 82% 30.21 in 6.2 mi WSW 18.4 mph - N/A   Mostly Cloudy
3:00 PM 64.4 °F 57.2 °F 77% 30.24 in 6.2 mi West 17.3 mph - N/A   Scattered Clouds
3:30 PM 64.4 °F 55.4 °F 73% 30.24 in 6.2 mi West 18.4 mph - N/A   Partly Cloudy
4:00 PM 64.4 °F 57.2 °F 77% 30.24 in 6.2 mi West 18.4 mph - N/A   Partly Cloudy
4:30 PM 64.4 °F 57.2 °F 77% 30.24 in 6.2 mi WSW 15.0 mph - N/A   Scattered Clouds
5:00 PM 62.6 °F 55.4 °F 77% 30.24 in 6.2 mi West 13.8 mph - N/A   Mostly Cloudy
5:30 PM 60.8 °F 55.4 °F 82% 30.24 in 6.2 mi WSW 16.1 mph - N/A   Mostly Cloudy
6:00 PM 60.8 °F 53.6 °F 77% 30.24 in 6.2 mi WSW 16.1 mph - N/A   Mostly Cloudy
6:30 PM 59.0 °F 53.6 °F 82% 30.24 in 6.2 mi WSW 15.0 mph - N/A   Mostly Cloudy
7:00 PM 58 °F 54 °F 80% 30.26 in 25 mi WSW 13.4 mph - -   Mostly Cloudy
7:00 PM 59.0 °F 53.6 °F 82% 30.24 in 6.2 mi WSW 13.8 mph - N/A   Mostly Cloudy